St. Augustine, FL

9:17 AM EDT on April 27, 2017 (GMT -0400)
Saint Augustine

Weather History for KSGJ - May, 2013

Change the Weather History Date:

Friday, May 10, 2013

  Actual Average Record
Temperature  
Mean Temperature 72 °F -  
Max Temperature 82 °F 79 °F 91 °F (2000)
Min Temperature 63 °F 63 °F 49 °F (1992)
Cooling Degree Days 7    
Growing Degree Days 22 (Base 50)    
Moisture  
Dew Point 66 °F    
Average Humidity 78    
Maximum Humidity 93    
Minimum Humidity 64    
Precipitation  
Precipitation 0.00 in - - ()
Sea Level Pressure  
Sea Level Pressure 30.10 in    
Wind  
Wind Speed 7 mph (SSE)    
Max Wind Speed 16 mph    
Max Gust Speed -    
Visibility 10 miles    
Events      
Averages and records for this station are not official NWS values.
T = Trace of Precipitation, MM = Missing Value Source: NWS Daily Summary

Daily Weather History Graph

Daily Weather History Graph

Search for Another Location

Airport or City:

Trip Planner

Search our weather history database for the weather conditions in past years. The results will help you decide how hot, cold, wet, or windy it might be!

Date:

Astronomy

May. 10, 2013 Rise Set
Actual Time 6:35 AM EDT 8:08 PM EDT
Civil Twilight 6:09 AM EDT 8:34 PM EDT
Nautical Twilight 5:38 AM EDT 9:05 PM EDT
Astronomical Twilight 5:05 AM EDT 9:38 PM EDT
Moon 6:59 AM EDT (5/10) 8:55 PM EDT (5/10)
Length of Visible Light 14h 25m
Length of Day
13h 33m
New Moon, 0% of the Moon is Illuminated
May 10
New Moon
May 18
First Quarter
May 25
Full
May 31
Last Quarter
Jun 8
New

Hourly Weather History & Observations

Time (EDT) Temp. Heat Index Dew Point Humidity Pressure Visibility Wind Dir Wind Speed Gust Speed Precip Events Conditions
12:58 AM 68.0 °F - 64.0 °F 87% 30.14 in 9.0 mi South 4.6 mph - N/A   Clear
1:58 AM 66.0 °F - 63.0 °F 90% 30.14 in 10.0 mi WSW 5.8 mph - N/A   Clear
2:58 AM 66.0 °F - 62.1 °F 87% 30.12 in 10.0 mi WSW 6.9 mph - N/A   Clear
3:58 AM 64.9 °F - 62.1 °F 90% 30.12 in 10.0 mi West 4.6 mph - N/A   Clear
4:58 AM 64.9 °F - 61.0 °F 87% 30.10 in 10.0 mi West 3.5 mph - N/A   Clear
5:58 AM 63.0 °F - 61.0 °F 93% 30.11 in 10.0 mi Calm Calm - N/A   Clear
6:58 AM 64.0 °F - 60.1 °F 87% 30.11 in 10.0 mi Calm Calm - N/A   Clear
7:58 AM 68.0 °F - 62.1 °F 81% 30.15 in 10.0 mi Calm Calm - N/A   Clear
8:58 AM 75.0 °F - 64.0 °F 69% 30.16 in 10.0 mi ESE 4.6 mph - N/A   Clear
9:58 AM 77.0 °F - 64.0 °F 64% 30.12 in 10.0 mi East 8.1 mph - N/A   Clear
10:58 AM 79.0 °F - 66.0 °F 64% 30.12 in 10.0 mi ESE 9.2 mph - N/A   Clear
11:58 AM 79.0 °F - 66.9 °F 66% 30.13 in 10.0 mi ESE 9.2 mph - N/A   Clear
12:58 PM 81.0 °F 83.8 °F 68.0 °F 65% 30.14 in 10.0 mi ESE 12.7 mph - N/A   Clear
1:58 PM 80.1 °F 82.9 °F 69.1 °F 69% 30.11 in 10.0 mi ESE 13.8 mph - N/A   Clear
2:58 PM 81.0 °F 84.1 °F 69.1 °F 67% 30.10 in 10.0 mi SE 13.8 mph - N/A   Clear
3:58 PM 81.0 °F 83.8 °F 68.0 °F 65% 30.08 in 10.0 mi SE 16.1 mph - N/A   Clear
4:58 PM 80.1 °F 82.9 °F 69.1 °F 69% 30.05 in 10.0 mi SE 13.8 mph - N/A   Clear
5:58 PM 78.1 °F - 70.0 °F 76% 30.03 in 10.0 mi SE 12.7 mph - N/A   Clear
6:58 PM 77.0 °F - 70.0 °F 79% 30.03 in 10.0 mi SE 10.4 mph - N/A   Mostly Cloudy
7:58 PM 75.9 °F - 70.0 °F 82% 30.03 in 10.0 mi SE 10.4 mph - N/A   Partly Cloudy
8:58 PM 75.0 °F - 70.0 °F 84% 30.05 in 10.0 mi SSE 6.9 mph - N/A   Clear
9:58 PM 75.0 °F - 69.1 °F 82% 30.05 in 10.0 mi SSE 11.5 mph - N/A   Clear
10:58 PM 73.9 °F - 68.0 °F 82% 30.06 in 10.0 mi South 6.9 mph - N/A   Clear
11:58 PM 73.0 °F - 66.9 °F 81% 30.07 in 10.0 mi SSW 4.6 mph - N/A   Clear